TimeMDT,TemperatureF,Dew PointF,Humidity,Sea Level PressureIn,VisibilityMPH,Wind Direction,Wind SpeedMPH,Gust SpeedMPH,PrecipitationIn,Events,Conditions,WindDirDegrees,DateUTC
12:15 AM,57.2,28.4,33,29.75,10.0,South,17.3,-,N/A,,Clear,180,2012-10-02 06:15:00
12:35 AM,57.2,28.4,33,29.75,10.0,South,16.1,-,N/A,,Clear,190,2012-10-02 06:35:00
12:55 AM,55.4,28.4,36,29.74,10.0,South,12.7,-,N/A,,Clear,180,2012-10-02 06:55:00
1:15 AM,55.4,28.4,36,29.73,10.0,South,11.5,-,N/A,,Clear,190,2012-10-02 07:15:00
1:35 AM,53.6,28.4,38,29.73,10.0,South,8.1,-,N/A,,Clear,180,2012-10-02 07:35:00
1:55 AM,51.8,28.4,41,29.72,10.0,South,8.1,-,N/A,,Clear,180,2012-10-02 07:55:00
2:15 AM,51.8,28.4,41,29.72,10.0,South,9.2,-,N/A,,Clear,180,2012-10-02 08:15:00
2:35 AM,51.8,28.4,41,29.71,10.0,South,10.4,-,N/A,,Clear,180,2012-10-02 08:35:00
2:55 AM,53.6,30.2,41,29.71,10.0,South,11.5,-,N/A,,Clear,180,2012-10-02 08:55:00
3:15 AM,51.8,30.2,44,29.70,10.0,South,10.4,-,N/A,,Clear,190,2012-10-02 09:15:00
3:35 AM,51.8,30.2,44,29.69,10.0,South,12.7,-,N/A,,Clear,190,2012-10-02 09:35:00
3:55 AM,55.4,32.0,41,29.69,10.0,SSW,10.4,-,N/A,,Clear,210,2012-10-02 09:55:00
4:15 AM,57.2,32.0,38,29.69,10.0,SSW,9.2,-,N/A,,Clear,200,2012-10-02 10:15:00
4:35 AM,50.0,28.4,43,29.69,10.0,South,8.1,-,N/A,,Clear,190,2012-10-02 10:35:00
4:55 AM,53.6,32.0,44,29.68,10.0,SE,3.5,-,N/A,,Clear,140,2012-10-02 10:55:00
5:15 AM,51.8,30.2,44,29.68,10.0,South,5.8,-,N/A,,Clear,190,2012-10-02 11:15:00
5:35 AM,51.8,32.0,47,29.68,10.0,SSW,8.1,-,N/A,,Clear,210,2012-10-02 11:35:00
5:55 AM,51.8,30.2,44,29.69,10.0,ESE,3.5,-,N/A,,Clear,120,2012-10-02 11:55:00
6:15 AM,48.2,30.2,50,29.69,10.0,Calm,Calm,-,N/A,,Clear,0,2012-10-02 12:15:00
6:35 AM,50.0,30.2,47,29.70,10.0,Calm,Calm,-,N/A,,Clear,0,2012-10-02 12:35:00
6:55 AM,51.8,30.2,44,29.70,10.0,West,8.1,-,N/A,,Clear,280,2012-10-02 12:55:00
7:15 AM,51.8,32.0,47,29.71,10.0,WNW,8.1,-,N/A,,Clear,300,2012-10-02 13:15:00
7:35 AM,51.8,33.8,50,29.72,10.0,WNW,6.9,-,N/A,,Clear,300,2012-10-02 13:35:00
7:55 AM,53.6,33.8,47,29.72,10.0,WNW,9.2,-,N/A,,Clear,290,2012-10-02 13:55:00
8:15 AM,55.4,33.8,44,29.73,10.0,West,6.9,-,N/A,,Clear,270,2012-10-02 14:15:00
8:35 AM,60.8,33.8,36,29.73,10.0,West,8.1,-,N/A,,Clear,280,2012-10-02 14:35:00
8:55 AM,62.6,33.8,34,29.73,10.0,WNW,10.4,-,N/A,,Clear,300,2012-10-02 14:55:00
9:15 AM,62.6,33.8,34,29.74,10.0,WNW,8.1,-,N/A,,Clear,300,2012-10-02 15:15:00
9:35 AM,64.4,35.6,34,29.75,10.0,WNW,8.1,-,N/A,,Clear,290,2012-10-02 15:35:00
9:55 AM,66.2,37.4,35,29.76,10.0,NW,11.5,-,N/A,,Clear,320,2012-10-02 15:55:00
10:15 AM,66.2,37.4,35,29.75,10.0,NNW,8.1,-,N/A,,Clear,330,2012-10-02 16:15:00
10:35 AM,68.0,37.4,33,29.77,10.0,NW,10.4,-,N/A,,Clear,320,2012-10-02 16:35:00
10:55 AM,66.2,37.4,35,29.77,10.0,NNW,11.5,-,N/A,,Clear,330,2012-10-02 16:55:00
11:15 AM,66.2,37.4,35,29.77,10.0,NW,16.1,-,N/A,,Clear,320,2012-10-02 17:15:00
11:35 AM,64.4,39.2,40,29.78,10.0,NW,16.1,-,N/A,,Clear,320,2012-10-02 17:35:00
11:55 AM,64.4,39.2,40,29.78,10.0,NW,16.1,-,N/A,,Clear,320,2012-10-02 17:55:00
12:15 PM,66.2,39.2,37,29.79,10.0,NW,13.8,-,N/A,,Clear,320,2012-10-02 18:15:00
12:35 PM,66.2,39.2,37,29.79,10.0,NW,12.7,18.4,N/A,,Clear,310,2012-10-02 18:35:00
1:15 PM,66.2,37.4,35,29.79,10.0,WNW,6.9,-,N/A,,Clear,300,2012-10-02 19:15:00
1:35 PM,68.0,37.4,33,29.79,10.0,NW,15.0,18.4,N/A,,Clear,310,2012-10-02 19:35:00
1:55 PM,68.0,37.4,33,29.78,10.0,NW,12.7,17.3,N/A,,Clear,310,2012-10-02 19:55:00
2:15 PM,68.0,37.4,33,29.79,10.0,NNW,10.4,19.6,N/A,,Clear,330,2012-10-02 20:15:00
2:55 PM,69.8,37.4,31,29.78,10.0,WNW,13.8,-,N/A,,Clear,300,2012-10-02 20:55:00
3:15 PM,69.8,37.4,31,29.79,10.0,WNW,10.4,17.3,N/A,,Clear,300,2012-10-02 21:15:00
3:35 PM,69.8,37.4,31,29.79,10.0,NNW,11.5,16.1,N/A,,Clear,330,2012-10-02 21:35:00
3:55 PM,69.8,35.6,28,29.78,10.0,NW,11.5,16.1,N/A,,Clear,310,2012-10-02 21:55:00
4:15 PM,69.8,35.6,28,29.79,10.0,NW,13.8,17.3,N/A,,Clear,320,2012-10-02 22:15:00
4:35 PM,69.8,35.6,28,29.79,10.0,NW,12.7,17.3,N/A,,Clear,320,2012-10-02 22:35:00
4:55 PM,69.8,35.6,28,29.79,10.0,NNW,12.7,-,N/A,,Clear,340,2012-10-02 22:55:00
5:15 PM,69.8,35.6,28,29.79,10.0,North,12.7,-,N/A,,Partly Cloudy,360,2012-10-02 23:15:00
5:35 PM,68.0,35.6,30,29.79,10.0,North,10.4,-,N/A,,Partly Cloudy,360,2012-10-02 23:35:00
5:55 PM,66.2,35.6,32,29.79,10.0,NNW,10.4,-,N/A,,Clear,340,2012-10-02 23:55:00
6:15 PM,64.4,35.6,34,29.80,10.0,NNW,5.8,-,N/A,,Clear,340,2012-10-03 00:15:00
6:35 PM,60.8,33.8,36,29.79,10.0,North,8.1,-,N/A,,Clear,360,2012-10-03 00:35:00
6:55 PM,59.0,33.8,39,29.79,10.0,North,6.9,-,N/A,,Clear,350,2012-10-03 00:55:00
7:15 PM,55.4,32.0,41,29.79,10.0,North,8.1,-,N/A,,Clear,350,2012-10-03 01:15:00
7:35 PM,53.6,32.0,44,29.81,10.0,NNW,8.1,-,N/A,,Clear,330,2012-10-03 01:35:00
7:55 PM,53.6,33.8,47,29.82,10.0,NNW,9.2,-,N/A,,Clear,330,2012-10-03 01:55:00
8:35 PM,53.6,32.0,44,29.82,10.0,North,8.1,-,N/A,,Clear,10,2012-10-03 02:35:00
8:55 PM,53.6,32.0,44,29.82,10.0,North,9.2,-,N/A,,Clear,10,2012-10-03 02:55:00
9:15 PM,55.4,32.0,41,29.82,10.0,North,11.5,-,N/A,,Clear,10,2012-10-03 03:15:00
9:35 PM,53.6,32.0,44,29.83,10.0,NNE,9.2,-,N/A,,Clear,20,2012-10-03 03:35:00
9:55 PM,53.6,32.0,44,29.84,10.0,NNE,10.4,-,N/A,,Clear,30,2012-10-03 03:55:00
10:15 PM,55.4,33.8,44,29.85,10.0,NNE,17.3,-,N/A,,Scattered Clouds,30,2012-10-03 04:15:00
10:35 PM,55.4,35.6,47,29.86,10.0,NNE,19.6,-,N/A,,Scattered Clouds,30,2012-10-03 04:35:00
10:55 PM,53.6,35.6,51,29.87,10.0,NE,16.1,-,N/A,,Scattered Clouds,40,2012-10-03 04:55:00
11:15 PM,53.6,35.6,51,29.88,10.0,NNE,21.9,-,N/A,,Scattered Clouds,30,2012-10-03 05:15:00
11:35 PM,51.8,35.6,54,29.88,10.0,NNE,17.3,23.0,N/A,,Scattered Clouds,30,2012-10-03 05:35:00
11:55 PM,51.8,35.6,54,29.87,10.0,NE,20.7,26.5,N/A,,Mostly Cloudy,40,2012-10-03 05:55:00